Location: ????????
(55.3939°N, 37.4780°E)
Time: 18:22:12
(UTC+00:00)

Cosmos 1000 Rocket - Pass Details

Date: 14 April 2026
Orbit: 952 x 992 km, 82.9° (Epoch: 19 May)

Event Time Altitude Azimuth Distance (km) Brightness Sun altitude
Rises 18:20:03 0° 348° (NNW) 3,672 8.4 -13.9°
Reaches altitude 10° 18:22:36 10° 351° (N) 2,716 7.6 -14.2°
Maximum altitude 18:28:48 71° 76° (ENE) 1,013 4.5 -14.8°
Enters shadow 18:33:16 19° 158° (SSE) 2,080 5.7 -15.3°
